Temperature
16 13 13 14 14 16 15 15 14 15 15 15 11 9 8 8 8 8 8 7 7 6 7 7 7 6 6 6 6 6 6 5 5 5 6 6 7 8 8 9 9 9 10 10
13 13 14 15 14 14 14 14 13 13 14 13 9 8 8 8 7 7 6 6 6 6 6 6 6 6 6 6 5 5 5 5 5 5 4 4 5 5 5 6 7 8 8 8
13 14 14 14 13 13 13 14 13 13 12 12 8 8 7 7 6 6 6 5 5 5 5 5 5 4 4 4 4 4 4 4 4 4 4 4 4 4 5 5 6 6 7 7
13 13 13 13 13 12 12 13 13 12 11 10 11 7 7 6 5 5 5 4 4 4 4 4 4 3 3 3 3 3 3 3 3 3 3 3 3 3 3 3 4 4 5 6
13 13 12 12 12 12 12 12 11 11 10 10 10 7 6 6 4 3 4 3 3 3 3 3 3 3 3 2 2 1 1 1 1 2 2 1 1 2 2 2 3 3 4 5
13 14 13 12 12 12 11 10 11 9 9 10 11 7 4 4 3 3 3 3 3 3 2 2 2 2 2 1 1 0 0 -0 -0 0 0 0 0 1 1 1 1 2 3 4
10 12 12 12 11 11 9 8 9 9 9 10 8 5 4 4 4 4 3 2 2 2 1 1 0 1 0 -1 -1 -1 -1 -1 -1 -1 -0 -1 -1 -0 -0 0 0 1 1 3
9 10 11 11 12 11 9 9 8 9 8 7 7 4 4 4 4 3 2 2 1 1 0 -0 -1 -0 -1 -2 -2 -2 -2 -2 -2 -1 -1 -1 -1 -1 -1 -1 -1 -1 -0 1
8 9 10 11 12 11 11 9 9 7 7 6 6 4 3 4 3 3 2 1 1 0 -1 -2 -2 -2 -2 -3 -3 -3 -4 -3 -3 -3 -2 -2 -2 -2 -2 -2 -2 -3 -3 -2
9 8 9 9 11 10 10 8 6 7 7 7 6 4 3 2 1 1 1 1 -0 -1 -2 -3 -3 -3 -3 -4 -4 -4 -5 -5 -5 -5 -4 -4 -4 -4 -4 -5 -5 -5 -4 -4
7 8 8 8 9 9 9 8 6 6 5 5 4 4 4 2 2 1 1 0 -1 -2 -3 -3 -4 -4 -5 -5 -6 -6 -6 -7 -7 -7 -6 -6 -6 -6 -6 -5 -5 -4 -4 -3
6 6 6 7 9 9 9 7 6 5 4 3 2 2 3 2 2 1 0 -1 -2 -3 -4 -4 -5 -6 -6 -7 -7 -7 -8 -8 -8 -8 -7 -7 -7 -6 -6 -5 -5 -4 -4 -3
6 6 6 8 8 6 6 7 7 5 3 2 2 2 2 2 2 1 0 -2 -3 -4 -4 -5 -6 -7 -8 -8 -8 -9 -9 -9 -9 -8 -8 -7 -7 -7 -6 -6 -5 -5 -4 -3
6 5 6 8 7 5 5 5 6 5 2 2 2 1 1 1 0 1 -0 -2 -4 -4 -5 -6 -7 -8 -8 -9 -10 -10 -10 -10 -9 -9 -9 -9 -8 -7 -7 -6 -6 -5 -5 -4
5 4 5 5 5 5 5 4 4 4 3 2 1 1 1 -0 -0 -0 -2 -4 -5 -5 -6 -7 -8 -9 -9 -10 -10 -10 -10 -10 -10 -10 -9 -9 -9 -8 -8 -7 -7 -6 -6 -5
4 4 4 3 4 4 4 3 3 3 3 2 1 1 1 1 1 -1 -3 -5 -5 -6 -7 -8 -9 -10 -10 -11 -11 -11 -11 -11 -10 -10 -10 -10 -10 -9 -9 -8 -8 -7 -7 -6
3 3 3 1 2 3 2 2 3 3 2 2 0 0 1 -0 -0 -2 -4 -6 -6 -7 -8 -9 -10 -11 -11 -11 -12 -12 -11 -11 -11 -10 -10 -11 -10 -10 -10 -9 -9 -8 -7 -7
2 2 1 0 1 2 2 3 3 2 2 2 1 0 0 -1 -2 -3 -5 -6 -7 -8 -9 -10 -10 -11 -11 -12 -12 -12 -12 -11 -11 -11 -11 -11 -11 -11 -10 -10 -10 -9 -8 -8
3 2 0 -1 -1 -1 2 3 3 2 1 2 0 -0 -1 -3 -2 -4 -5 -6 -8 -9 -9 -10 -11 -11 -12 -12 -12 -12 -12 -12 -12 -12 -12 -12 -12 -11 -11 -11 -10 -10 -9 -9
2 0 -1 -1 0 0 2 3 3 1 -0 1 1 -1 -3 -4 -3 -4 -6 -7 -9 -9 -10 -10 -11 -12 -12 -12 -12 -13 -13 -13 -13 -13 -13 -13 -13 -12 -12 -12 -11 -11 -10 -10
2 0 -1 -2 -2 -1 1 3 2 -1 -0 2 1 -2 -4 -5 -5 -6 -7 -8 -9 -10 -10 -10 -11 -12 -13 -13 -13 -13 -14 -14 -14 -14 -14 -14 -13 -13 -13 -13 -12 -12 -11 -11
1 -0 -0 -2 -2 -1 3 2 1 1 2 1 -0 -2 -4 -5 -6 -7 -8 -9 -10 -10 -10 -11 -11 -12 -13 -14 -14 -14 -15 -15 -15 -14 -14 -14 -14 -14 -14 -14 -13 -13 -12 -12
0 1 -1 -0 -0 2 3 3 2 2 1 1 -1 -3 -4 -6 -7 -8 -9 -9 -10 -10 -11 -11 -12 -13 -13 -14 -14 -15 -15 -15 -15 -15 -15 -15 -15 -15 -15 -14 -14 -14 -13 -13
0 1 -1 -0 -0 2 3 2 2 2 1 -1 -2 -4 -5 -7 -8 -8 -9 -9 -10 -11 -11 -12 -13 -13 -14 -14 -15 -15 -15 -15 -15 -15 -15 -15 -15 -15 -15 -15 -15 -14 -14 -14
-0 -0 -1 -1 1 2 3 2 1 1 -0 -2 -3 -5 -6 -8 -8 -9 -9 -10 -11 -11 -12 -13 -13 -14 -14 -15 -15 -15 -15 -15 -15 -15 -15 -15 -15 -15 -15 -15 -15 -15 -15 -14
-0 -1 -1 -1 1 2 2 1 1 -0 -2 -3 -4 -6 -7 -8 -8 -9 -10 -10 -11 -12 -12 -13 -13 -14 -14 -15 -15 -15 -15 -15 -15 -15 -15 -15 -16 -16 -16 -16 -15 -15 -15 -15
Wind_Speed
7 8 6 7 4 0 2 2 3 3 4 5 12 13 8 6 10 11 11 12 13 13 13 13 13 12 12 12 12 12 11 11 10 8 8 9 10 11 11 10 18 21 22 19
8 7 8 4 6 6 4 2 4 6 7 6 13 11 7 7 10 10 11 12 11 13 15 16 16 15 15 15 14 13 13 13 11 7 5 4 4 5 6 6 12 18 20 19
8 5 6 6 9 8 5 1 3 6 7 4 11 6 6 7 11 13 11 10 12 14 14 15 14 14 15 16 17 17 16 17 15 11 6 5 4 5 6 10 13 14 20 20
7 7 7 8 6 6 5 6 7 7 4 4 4 5 4 6 11 13 12 12 13 13 13 13 14 15 16 15 14 15 16 16 16 12 8 8 8 6 6 8 11 16 18 19
5 5 7 7 7 5 7 10 7 4 5 2 3 6 1 4 9 10 10 11 13 13 13 13 14 14 14 13 13 14 15 15 14 13 11 10 8 8 9 10 12 13 15 16
4 3 4 5 5 4 7 7 5 5 5 2 3 6 3 5 5 6 9 11 12 14 13 12 13 15 14 13 13 15 16 14 14 14 14 12 12 14 16 15 14 14 13 14
9 6 7 5 8 9 10 8 7 9 6 4 4 8 5 4 4 6 7 9 11 12 10 12 16 18 17 15 16 16 17 16 16 16 16 14 13 14 15 16 15 16 15 15
9 7 8 7 4 4 6 6 5 2 5 6 5 5 6 4 3 5 5 7 11 12 11 13 16 18 17 17 17 18 18 17 18 18 17 15 14 13 13 15 16 16 15 16
5 6 6 6 4 3 5 4 1 3 4 5 2 5 6 3 5 7 9 11 12 12 11 12 14 16 17 16 15 17 18 19 20 19 19 16 16 16 17 19 18 16 17 18
1 4 6 7 5 6 3 4 6 3 4 6 5 1 3 8 9 9 10 11 11 11 11 13 15 18 18 17 18 18 20 20 20 20 18 17 17 18 18 18 19 20 20 20
4 0 7 6 6 6 6 5 5 2 1 3 6 3 4 5 6 8 9 10 11 12 13 14 16 17 18 19 19 19 18 19 20 20 19 18 18 18 17 17 19 19 19 20
4 3 4 6 5 3 4 5 4 1 5 3 3 3 6 2 4 6 8 8 8 9 9 10 13 14 17 19 19 19 19 18 19 19 18 18 18 18 17 18 20 20 20 19
3 3 5 6 3 7 7 3 1 3 2 3 3 5 2 4 7 9 11 9 8 10 11 12 13 15 17 18 19 19 18 18 17 17 18 18 19 19 18 19 20 20 20 20
3 2 3 5 4 5 6 6 3 1 0 4 5 8 9 12 14 16 15 10 9 11 14 16 16 16 16 17 18 18 18 16 17 16 16 16 17 18 18 18 18 19 19 19
4 1 3 5 4 3 3 4 4 4 2 2 7 8 8 9 9 11 9 9 12 14 16 17 17 17 17 17 17 17 15 15 16 16 15 14 14 15 16 17 18 18 17 17
3 3 5 6 6 5 5 6 5 4 2 5 7 8 7 9 8 11 7 12 15 15 16 17 17 18 17 16 17 16 14 15 16 16 15 14 14 15 15 15 15 16 16 14
3 3 2 4 7 4 3 3 2 2 4 4 5 7 10 11 13 12 8 12 15 15 14 15 15 15 15 13 14 14 15 14 15 15 16 15 15 15 15 16 16 14 15 13
4 3 2 2 6 0 4 3 3 5 7 3 6 9 10 10 13 2 6 10 12 12 12 11 11 12 11 10 12 12 12 13 14 14 15 15 15 15 15 15 15 14 11 12
3 4 3 3 3 6 4 4 5 5 6 2 6 10 9 10 7 2 6 9 10 9 8 7 8 9 10 11 12 11 12 13 14 15 15 15 14 14 14 15 15 13 11 10
5 5 5 3 1 5 5 6 5 0 5 6 6 7 8 10 10 4 8 9 9 8 8 9 9 8 9 11 12 11 12 13 15 15 15 14 14 13 12 14 13 12 11 12
1 3 3 4 5 7 6 6 2 3 6 9 4 3 4 5 6 9 9 8 8 8 8 9 9 8 8 11 12 11 11 13 15 15 15 15 14 13 11 12 12 12 11 11
6 5 5 5 4 7 5 1 2 6 6 5 3 2 5 7 7 8 9 9 9 9 9 9 9 9 8 10 12 12 12 14 15 15 15 15 14 13 13 12 12 11 11 11
6 7 6 8 8 5 4 5 5 4 4 1 1 2 4 5 6 8 9 8 8 8 9 9 9 9 8 10 11 11 12 14 15 14 14 13 14 12 12 11 11 10 10 10
3 4 4 4 6 5 4 3 2 1 2 3 2 1 0 2 4 6 8 9 9 9 9 9 9 10 9 10 12 10 12 14 14 13 12 11 10 11 11 11 11 10 10 11
7 6 4 4 6 4 3 3 2 5 5 4 2 2 2 2 4 4 5 7 8 10 10 10 9 10 11 11 11 12 12 12 11 11 11 10 10 9 8 9 9 11 8 13
4 7 7 7 6 4 4 2 3 5 4 3 2 3 4 4 3 4 5 6 7 8 9 11 11 12 11 11 12 11 12 11 10 12 11 9 7 7 8 6 8 13 15 19
Wind_Direction
34 52 22 344 359 301 245 257 281 267 31 56 105 97 82 67 67 57 44 35 32 22 5 1 358 352 354 355 352 351 352 345 344 346 350 355 356 350 346 344 343 342 338 327
43 27 333 19 39 43 38 60 352 325 350 55 99 90 84 67 63 55 48 38 26 15 6 0 356 351 348 347 345 343 340 331 327 322 314 318 321 315 318 319 336 339 335 330
82 347 354 55 32 15 360 149 281 287 326 68 118 100 98 67 64 56 44 36 23 13 1 356 356 354 356 358 356 354 345 341 336 328 317 318 316 315 340 344 341 337 333 326
55 6 27 30 20 8 312 261 275 278 303 273 174 151 147 88 56 38 26 23 14 1 355 354 360 3 4 0 358 353 347 345 343 341 336 339 346 340 333 333 329 328 328 325
44 16 28 14 339 331 280 288 288 258 196 291 11 103 108 49 42 19 12 15 8 356 353 357 4 360 354 348 350 348 342 340 339 341 340 341 343 335 330 330 325 324 322 320
29 32 38 338 324 333 312 341 24 65 85 52 33 117 52 29 35 10 12 10 358 348 349 360 2 355 349 347 348 345 343 341 344 350 355 352 345 338 334 332 325 323 318 314
354 -0 357 0 356 359 16 30 19 8 6 276 57 94 115 100 72 40 24 3 347 341 351 3 360 354 348 348 348 347 348 350 357 0 356 345 340 337 332 330 326 322 317 312
19 340 344 357 4 334 360 63 86 309 279 297 23 119 154 152 84 43 25 355 351 353 2 2 357 352 344 344 348 349 349 352 354 351 347 342 344 339 333 330 325 319 313 308
30 299 314 332 339 23 14 56 164 182 288 281 269 131 182 74 30 18 5 356 355 351 355 353 352 350 343 340 346 350 351 353 351 349 345 341 341 337 334 331 325 320 314 308
113 292 305 315 4 19 75 112 57 42 313 298 301 112 331 352 354 352 347 343 342 345 347 351 355 351 346 347 353 354 358 355 349 344 342 340 338 337 333 328 323 318 313 308
53 7 316 4 29 340 8 44 49 31 218 257 293 314 54 32 356 334 330 339 343 346 348 352 352 350 351 355 354 353 355 353 347 343 341 340 339 335 330 328 326 322 316 311
21 96 298 280 290 353 67 77 83 18 299 257 253 252 82 59 304 312 330 340 337 339 338 343 349 351 353 352 350 350 351 350 344 341 341 342 340 335 333 337 338 335 329 322
36 89 343 352 353 11 32 38 157 169 187 243 251 262 144 335 330 344 350 355 344 341 343 350 353 352 353 353 349 347 346 345 341 341 344 346 344 339 341 345 345 347 346 342
93 98 177 238 290 345 321 325 302 126 270 280 264 296 318 342 345 343 343 351 344 344 350 353 352 351 350 351 347 343 340 340 339 339 340 343 344 342 343 344 347 352 355 357
78 52 307 288 332 331 321 5 36 58 56 263 287 295 298 316 311 314 325 341 345 349 352 353 352 350 347 347 345 342 339 339 340 339 338 338 340 342 343 346 348 352 359 4
73 65 8 323 11 20 56 31 50 57 21 299 301 297 286 300 302 324 348 350 349 349 350 351 351 348 345 345 342 339 338 341 342 342 340 339 342 345 345 344 348 351 355 2
70 74 48 291 324 62 19 348 44 315 276 280 291 285 302 313 320 328 353 353 348 345 349 350 349 344 341 341 338 337 340 341 344 344 342 341 342 345 347 349 349 349 351 354
120 117 137 303 19 110 240 221 213 267 270 267 281 284 288 296 302 4 28 356 346 346 349 347 342 335 332 332 333 334 338 342 343 344 345 343 344 344 346 349 349 345 346 352
127 132 103 82 346 285 274 268 272 283 282 232 280 292 308 317 299 158 26 1 345 350 353 343 336 327 331 332 330 334 341 345 345 345 343 341 342 343 349 351 348 346 346 351
71 92 105 105 285 264 230 256 284 304 288 263 275 300 319 333 337 321 5 356 351 6 2 352 340 334 339 338 335 336 343 347 346 343 340 338 340 340 348 350 347 348 351 355
86 80 126 170 229 264 249 273 43 73 283 291 293 298 313 312 295 321 349 353 2 11 358 348 338 331 329 334 340 341 343 344 341 340 340 342 342 341 351 349 347 346 352 355
183 170 191 166 212 261 242 224 169 242 261 274 275 284 289 293 312 335 345 350 359 356 351 347 341 334 330 337 342 342 343 340 339 340 342 342 345 351 355 346 346 347 351 349
194 189 187 191 214 228 228 225 227 236 276 300 172 278 291 309 329 344 349 351 353 349 347 343 337 332 334 338 342 340 341 340 341 341 342 342 348 349 348 346 346 349 354 352
247 155 157 227 254 244 247 234 311 23 97 113 138 251 40 332 343 357 352 350 349 346 345 339 336 337 339 340 342 334 335 339 339 339 338 340 347 348 345 350 352 354 356 358
219 176 180 242 275 311 303 347 37 106 112 120 118 120 90 53 25 360 343 348 346 343 340 338 336 339 338 334 332 332 334 334 334 335 335 337 345 339 337 344 349 353 348 358
201 175 177 217 220 200 261 315 128 142 149 159 152 115 78 72 34 1 351 344 340 339 339 338 339 339 332 328 325 324 328 328 329 339 336 332 335 335 335 331 339 348 353 355
Height
1541 1546 1553 1551 1548 1546 1546 1547 1548 1543 1540 1543 1554 1564 1567 1566 1563 1563 1563 1562 1560 1558 1556 1551 1547 1542 1538 1533 1529 1524 1519 1515 1510 1505 1501 1495 1491 1489 1486 1483 1481 1478 1475 1472
1549 1555 1552 1548 1548 1547 1547 1549 1551 1548 1544 1548 1562 1567 1568 1567 1567 1567 1567 1565 1563 1560 1556 1551 1547 1543 1539 1534 1530 1525 1521 1515 1510 1505 1500 1495 1490 1487 1484 1480 1475 1472 1469 1466
1557 1558 1552 1552 1553 1553 1551 1551 1552 1553 1549 1548 1561 1568 1570 1571 1570 1570 1569 1568 1566 1562 1557 1553 1548 1544 1539 1534 1529 1524 1518 1513 1507 1502 1496 1491 1485 1481 1477 1472 1468 1464 1461 1459
1559 1558 1556 1556 1556 1557 1558 1548 1549 1550 1555 1557 1554 1574 1576 1577 1578 1576 1574 1571 1568 1564 1559 1554 1549 1544 1539 1534 1528 1522 1515 1509 1504 1498 1493 1487 1481 1477 1472 1468 1464 1460 1456 1452
1562 1560 1560 1560 1560 1557 1554 1547 1548 1548 1554 1558 1557 1572 1584 1580 1583 1584 1580 1576 1571 1566 1560 1555 1549 1544 1539 1532 1525 1517 1511 1505 1499 1494 1489 1484 1480 1475 1469 1465 1459 1455 1451 1447
1562 1561 1562 1562 1559 1556 1552 1549 1547 1551 1556 1559 1555 1570 1588 1585 1586 1584 1581 1577 1572 1566 1560 1555 1549 1543 1537 1530 1523 1515 1508 1502 1496 1490 1485 1481 1476 1471 1465 1459 1453 1448 1444 1440
1572 1567 1564 1562 1561 1557 1559 1563 1566 1565 1569 1563 1563 1575 1588 1585 1583 1582 1580 1576 1571 1565 1559 1552 1546 1540 1534 1527 1520 1512 1505 1498 1492 1487 1482 1478 1473 1467 1461 1454 1448 1441 1436 1433
1583 1579 1571 1567 1567 1568 1568 1570 1581 1583 1581 1574 1567 1583 1588 1584 1583 1581 1579 1576 1570 1564 1558 1551 1545 1539 1532 1525 1517 1509 1502 1495 1489 1484 1479 1474 1469 1463 1456 1450 1444 1437 1431 1426
1587 1583 1573 1570 1569 1569 1570 1574 1575 1581 1580 1581 1573 1581 1589 1584 1583 1580 1577 1572 1567 1562 1556 1550 1543 1536 1530 1523 1516 1509 1501 1494 1488 1482 1476 1471 1465 1459 1452 1445 1439 1432 1425 1420
1583 1586 1577 1573 1570 1570 1572 1574 1582 1582 1583 1580 1575 1583 1590 1587 1585 1580 1575 1569 1565 1560 1554 1547 1540 1534 1528 1522 1515 1508 1501 1494 1488 1481 1475 1469 1462 1456 1449 1442 1436 1429 1422 1415
1584 1586 1582 1579 1578 1579 1576 1578 1582 1587 1589 1594 1592 1591 1587 1588 1585 1580 1575 1570 1565 1560 1554 1547 1540 1533 1527 1520 1513 1506 1499 1493 1487 1480 1473 1467 1460 1454 1448 1441 1434 1426 1419 1411
1589 1591 1591 1584 1578 1577 1578 1584 1588 1594 1595 1596 1600 1596 1587 1586 1583 1579 1575 1570 1565 1560 1555 1548 1540 1532 1525 1518 1511 1505 1499 1493 1486 1479 1472 1465 1458 1452 1446 1440 1432 1424 1416 1408
1589 1591 1592 1583 1585 1585 1587 1587 1586 1590 1594 1597 1598 1593 1585 1584 1579 1575 1571 1566 1562 1557 1552 1544 1537 1531 1524 1517 1510 1504 1499 1493 1486 1478 1471 1463 1457 1451 1445 1438 1431 1424 1415 1407
1589 1593 1593 1591 1589 1595 1594 1591 1587 1589 1598 1600 1596 1594 1586 1582 1577 1572 1568 1564 1559 1555 1549 1543 1536 1531 1525 1518 1511 1505 1499 1493 1486 1479 1471 1464 1457 1451 1445 1439 1432 1425 1417 1409
1591 1595 1593 1593 1594 1593 1592 1592 1591 1593 1596 1600 1598 1594 1587 1583 1579 1574 1568 1563 1558 1553 1548 1542 1537 1531 1525 1518 1512 1505 1499 1492 1485 1479 1471 1465 1458 1451 1445 1439 1433 1427 1420 1414
1592 1597 1597 1596 1592 1594 1595 1595 1594 1595 1596 1597 1596 1593 1585 1581 1576 1570 1565 1562 1557 1552 1548 1543 1538 1531 1525 1519 1512 1505 1498 1491 1485 1478 1472 1465 1458 1451 1444 1438 1433 1428 1423 1418
1596 1598 1600 1603 1600 1595 1602 1599 1597 1596 1594 1595 1596 1592 1583 1578 1573 1568 1564 1560 1557 1552 1547 1543 1538 1532 1526 1520 1513 1505 1498 1491 1485 1478 1472 1465 1458 1452 1445 1439 1434 1429 1424 1420
1596 1598 1603 1607 1605 1604 1604 1596 1595 1594 1592 1591 1590 1586 1581 1578 1572 1567 1563 1560 1555 1551 1546 1542 1537 1531 1525 1519 1512 1506 1499 1491 1484 1477 1471 1465 1459 1453 1446 1440 1435 1430 1425 1421
1593 1596 1604 1613 1612 1609 1600 1595 1593 1593 1592 1589 1587 1581 1578 1574 1569 1566 1562 1559 1555 1550 1546 1541 1536 1530 1524 1518 1511 1504 1497 1490 1483 1476 1470 1465 1459 1453 1447 1442 1436 1431 1427 1422
1594 1597 1607 1612 1609 1607 1598 1592 1589 1591 1592 1586 1583 1580 1576 1571 1566 1564 1561 1556 1552 1548 1543 1538 1533 1527 1522 1515 1509 1502 1495 1488 1482 1476 1470 1465 1459 1454 1448 1443 1438 1433 1429 1425
1596 1601 1607 1612 1614 1603 1593 1589 1589 1596 1594 1584 1580 1577 1574 1571 1569 1564 1559 1555 1550 1545 1540 1535 1530 1525 1519 1514 1507 1501 1494 1488 1482 1476 1470 1464 1459 1454 1449 1444 1439 1434 1430 1426
1595 1601 1603 1609 1611 1604 1587 1587 1589 1588 1582 1580 1577 1575 1572 1569 1565 1561 1557 1553 1547 1542 1537 1532 1527 1523 1517 1512 1505 1499 1494 1488 1482 1476 1470 1464 1459 1454 1449 1444 1439 1435 1431 1427
1589 1589 1591 1593 1593 1585 1584 1584 1584 1582 1579 1577 1575 1572 1570 1567 1563 1559 1554 1550 1546 1541 1536 1530 1525 1520 1515 1510 1504 1499 1494 1488 1482 1476 1470 1465 1460 1455 1450 1444 1439 1435 1432 1428
1584 1582 1584 1584 1582 1581 1581 1581 1580 1579 1577 1574 1572 1570 1567 1564 1560 1556 1552 1547 1543 1539 1534 1529 1523 1518 1513 1508 1503 1499 1493 1487 1482 1476 1470 1466 1461 1456 1451 1447 1442 1438 1434 1430
1579 1580 1582 1582 1580 1579 1579 1579 1578 1576 1574 1572 1569 1566 1563 1560 1557 1554 1550 1545 1542 1538 1533 1528 1522 1517 1512 1507 1503 1498 1493 1487 1481 1476 1470 1466 1461 1456 1452 1448 1444 1440 1437 1434
1575 1577 1580 1580 1577 1578 1578 1577 1575 1573 1571 1569 1566 1563 1561 1558 1555 1551 1548 1544 1540 1535 1531 1526 1521 1516 1511 1506 1502 1497 1492 1486 1481 1475 1470 1465 1460 1456 1451 1447 1443 1440 1437 1433